Vertical_Velocity
-2 -2 -2 -2 -1 -1 -1 -1 -0 -0 -0 -0 -1 -1 -1 -1 -2 -2 -2 -2 -2 -2 -2 -2 -2 -3 -3 -3 -3 -4 -4 -4 -4 -4 -4 -4 -4 -4 -3 -3 -3 -3 -2 -2 -2 -2 -2 -2 -2 -3 -3 -3 -3 -3 -3 -3 -4 -5 -5 -4 -2 -1 -1 -1 -1 -2 -2 -3 -3
-2 -2 -2 -2 -1 -1 -1 -1 -1 -1 -1 -1 -1 -1 -1 -1 -2 -2 -2 -2 -2 -2 -2 -3 -3 -3 -3 -4 -3 -3 -3 -3 -3 -4 -4 -4 -4 -3 -3 -3 -3 -3 -2 -2 -2 -2 -2 -3 -3 -3 -3 -3 -3 -3 -3 -3 -3 -4 -5 -5 -2 -1 -1 -1 -1 -2 -2 -3 -2
-2 -2 -2 -2 -2 -1 -1 -1 -2 -2 -1 -1 -1 -1 -1 -1 -2 -2 -2 -2 -2 -2 -2 -3 -3 -3 -3 -3 -3 -3 -3 -3 -3 -3 -4 -4 -3 -3 -3 -3 -3 -3 -2 -2 -2 -2 -2 -3 -3 -3 -3 -3 -3 -3 -3 -3 -3 -3 -4 -5 -3 -2 -1 -1 -1 -2 -3 -3 -2
-2 -2 -2 -2 -1 -1 -1 -1 -1 -1 -1 -1 -1 -1 -1 -2 -2 -2 -2 -2 -2 -2 -2 -3 -3 -3 -3 -3 -3 -3 -3 -3 -3 -3 -3 -3 -3 -3 -2 -2 -2 -2 -2 -2 -2 -2 -2 -2 -3 -3 -3 -3 -3 -3 -3 -2 -3 -3 -3 -4 -4 -2 -1 -1 -2 -2 -3 -3 -2
-2 -2 -1 -1 -1 -1 -1 -1 -1 -1 -1 -1 -1 -2 -2 -2 -2 -2 -2 -3 -2 -2 -2 -3 -3 -3 -3 -3 -3 -3 -3 -3 -3 -3 -3 -3 -3 -2 -2 -2 -2 -1 -1 -1 -1 -1 -1 -2 -2 -2 -3 -3 -3 -3 -3 -2 -2 -2 -3 -4 -4 -3 -2 -1 -2 -2 -2 -2 -3
-2 -2 -2 -1 -1 -1 -1 -1 -1 -1 -1 -1 -1 -2 -2 -2 -2 -2 -2 -2 -2 -2 -3 -3 -3 -3 -3 -3 -3 -3 -3 -3 -3 -3 -3 -2 -2 -2 -2 -1 -1 -1 -1 -1 -1 -1 -1 -1 -1 -1 -2 -2 -2 -3 -3 -2 -2 -2 -2 -3 -4 -4 -2 -1 -1 -1 -1 -2 -2
-2 -1 -1 -1 -1 -1 -1 -1 -1 -1 -1 -1 -1 -2 -2 -2 -2 -2 -1 -2 -2 -3 -3 -3 -3 -2 -2 -2 -2 -3 -3 -3 -3 -2 -2 -1 -1 -1 -1 -1 -1 -1 -1 -1 -0 -0 -0 -0 -0 -0 -1 -0 -1 -1 -1 -2 -1 -1 -1 -1 -2 -3 -3 -1 0 0 -0 -1 -2
-1 -1 -1 -1 -0 -0 -1 -1 -1 -1 -1 -1 -1 -1 -1 -1 -1 -2 -2 -3 -3 -3 -2 -2 -2 -2 -2 -2 -2 -2 -3 -3 -2 -2 -1 -1 -1 -1 -1 -1 -1 -1 -1 -1 -1 -1 -1 -0 0 0 0 0 1 0 -0 -1 -1 -1 -1 -1 -1 -2 -3 -2 0 1 1 0 -1
-1 -1 -1 -1 -0 -1 -1 -1 -1 -1 -1 -1 -1 -1 -1 -1 -1 -2 -2 -3 -2 -2 -2 -2 -2 -2 -2 -2 -2 -2 -2 -2 -2 -1 -1 -1 -1 -1 -1 -1 -1 -1 -1 -1 -1 -1 -1 -1 0 1 1 1 1 0 0 -0 -0 -0 -0 -0 -1 -2 -3 -4 -1 1 2 1 -0
-1 -1 -1 -1 -1 -1 -1 -1 -1 -1 -1 -1 -1 -1 -1 -1 -2 -2 -2 -2 -2 -2 -2 -2 -2 -3 -3 -3 -3 -3 -2 -2 -2 -2 -2 -2 -1 -1 -1 -1 -1 -1 -1 -1 -1 -1 -1 -1 -0 0 1 1 0 0 -0 0 0 0 0 -0 -0 -1 -3 -4 -2 0 3 3 1
-1 -1 -1 -1 -1 -1 -1 -1 -1 -1 -1 -1 -1 -1 -1 -2 -2 -2 -2 -2 -2 -3 -3 -2 -2 -2 -3 -3 -3 -2 -2 -2 -2 -2 -2 -2 -2 -2 -1 -1 -1 -1 -0 -0 0 0 0 -0 0 0 0 1 1 0 0 -0 0 0 1 0 0 -1 -2 -3 -3 -1 2 3 2
-1 -1 -1 -1 -1 -1 -1 -1 -1 -1 -1 -1 -1 -1 -2 -2 -2 -2 -3 -3 -3 -3 -2 -2 -2 -2 -2 -3 -2 -2 -2 -3 -3 -2 -2 -2 -2 -2 -1 -1 -1 0 0 1 1 1 1 1 1 1 1 1 1 1 1 0 0 1 1 1 1 0 -0 -2 -3 -2 -0 2 3
-1 -1 -1 -1 -1 -1 -1 -1 -1 -1 -1 -1 -1 -2 -2 -2 -2 -3 -3 -3 -3 -2 -2 -2 -2 -2 -2 -2 -3 -3 -3 -3 -3 -3 -3 -2 -2 -2 -1 -1 0 1 1 1 1 1 1 1 1 1 1 1 1 1 1 1 0 1 1 2 2 1 1 -0 -2 -3 -2 -0 2
-1 -1 -1 -1 -1 -1 -1 -1 -1 -1 -1 -1 -2 -2 -2 -3 -3 -3 -3 -3 -2 -2 -2 -2 -3 -3 -2 -2 -3 -3 -3 -3 -3 -3 -3 -2 -2 -1 -1 -0 0 1 1 1 1 0 0 -0 0 0 0 1 1 1 1 1 1 1 1 3 3 3 2 1 0 -1 -2 -2 -0
-1 -1 -1 -1 -1 -1 -1 -1 -1 -1 -1 -2 -2 -2 -3 -3 -3 -3 -2 -2 -2 -2 -2 -3 -3 -3 -3 -3 -3 -3 -3 -3 -3 -2 -2 -2 -1 -1 -0 0 0 0 0 -0 -1 -1 -1 -1 -1 -0 0 0 1 1 1 1 1 0 1 2 3 3 3 2 2 1 -0 -2 -2
-1 -1 -1 -1 -1 -1 -1 -1 -1 -1 -1 -2 -2 -2 -3 -3 -3 -2 -2 -2 -2 -2 -3 -3 -2 -3 -3 -3 -3 -3 -3 -3 -2 -2 -1 -1 -1 -0 -0 -0 -1 -1 -1 -2 -2 -2 -2 -2 -2 -1 -0 0 0 0 1 1 0 0 1 2 3 3 3 2 2 2 2 -0 -1
-1 -1 -1 -1 -1 -1 -1 -1 -1 -1 -2 -2 -2 -2 -2 -2 -2 -2 -2 -2 -2 -3 -3 -2 -2 -2 -2 -3 -3 -3 -2 -2 -1 -1 -0 0 -0 -0 -0 -1 -1 -2 -3 -3 -4 -4 -3 -3 -2 -2 -1 -1 -0 -0 0 0 0 0 0 1 1 2 2 2 1 1 2 2 0
-1 -1 -1 -1 -1 -1 -1 -1 -1 -2 -2 -2 -2 -2 -2 -2 -2 -2 -2 -2 -2 -2 -2 -2 -2 -2 -2 -3 -3 -2 -2 -1 -1 -1 -0 -0 -0 -0 -1 -1 -2 -3 -4 -4 -5 -5 -4 -4 -4 -3 -3 -2 -1 -1 -1 -0 -0 -0 -0 0 1 1 1 1 1 1 1 2 2
-1 -1 -1 -1 -1 -1 -1 -1 -1 -2 -2 -2 -2 -2 -2 -2 -2 -2 -3 -3 -2 -2 -2 -2 -2 -2 -2 -2 -2 -2 -2 -1 -1 -1 -1 -1 -1 -1 -1 -2 -3 -4 -5 -5 -5 -5 -5 -5 -5 -5 -4 -3 -3 -2 -1 -1 -1 -1 -0 -0 0 0 1 1 1 1 1 1 2
-1 -1 -1 -1 -1 -1 -1 -1 -1 -1 -1 -1 -1 -1 -2 -2 -2 -2 -3 -2 -2 -2 -2 -2 -2 -2 -3 -2 -2 -2 -2 -1 -1 -1 -1 -1 -1 -1 -2 -3 -4 -5 -6 -6 -6 -6 -6 -7 -6 -6 -5 -4 -3 -3 -2 -1 -1 -1 -1 -0 -0 0 1 1 1 1 1 1 1
-1 -1 -1 -1 -1 -1 -1 -1 -1 -1 -1 -1 -1 -1 -2 -2 -2 -2 -2 -2 -2 -2 -2 -2 -2 -2 -2 -2 -2 -2 -1 -1 -1 -1 -1 -1 -1 -2 -3 -4 -5 -6 -6 -7 -7 -7 -7 -7 -7 -6 -6 -5 -4 -3 -2 -2 -2 -1 -1 -0 -0 0 0 1 1 1 1 1 1
-1 -1 -1 -1 -1 -1 -1 -1 -1 -1 -1 -1 -1 -2 -2 -2 -2 -2 -2 -2 -2 -2 -2 -2 -2 -2 -2 -2 -1 -1 -1 -1 -1 -1 -1 -1 -1 -2 -3 -4 -5 -6 -6 -6 -6 -6 -6 -7 -7 -6 -6 -5 -4 -4 -3 -2 -2 -2 -1 -1 -0 0 0 1 1 1 1 1 1
-1 -1 -1 -1 -1 -1 -1 -1 -1 -1 -1 -1 -2 -2 -2 -2 -2 -2 -2 -2 -2 -2 -2 -2 -2 -2 -2 -1 -1 -1 -2 -2 -2 -2 -1 -1 -2 -3 -4 -5 -5 -5 -5 -4 -4 -4 -5 -5 -5 -6 -5 -5 -5 -4 -3 -3 -2 -2 -1 -1 -0 -0 0 1 1 1 1 1 1
-1 -1 -1 -1 -1 -1 -1 -1 -1 -1 -1 -1 -2 -2 -2 -2 -2 -2 -2 -2 -2 -2 -2 -2 -2 -2 -2 -2 -2 -2 -2 -2 -2 -2 -2 -2 -2 -3 -4 -4 -4 -4 -3 -3 -3 -3 -3 -3 -4 -4 -5 -5 -5 -4 -3 -3 -2 -2 -1 -1 -1 -0 -0 0 0 1 1 1 1
-1 -1 -1 -1 -1 -1 -1 -1 -1 -1 -1 -1 -2 -2 -2 -2 -2 -2 -2 -2 -2 -2 -2 -3 -3 -3 -3 -2 -2 -2 -1 -1 -1 -1 -1 -2 -2 -3 -3 -4 -3 -3 -2 -2 -2 -2 -2 -2 -3 -3 -4 -4 -4 -4 -3 -2 -2 -1 -1 -1 -0 -0 0 0 0 1 1 1 1
-0 -0 -0 -0 -1 -1 -1 -1 -1 -1 -1 -2 -2 -2 -2 -2 -2 -2 -2 -2 -3 -3 -3 -3 -3 -3 -2 -2 -2 -2 -2 -1 -1 -1 -1 -2 -2 -3 -3 -3 -3 -3 -2 -2 -2 -2 -2 -2 -2 -3 -3 -3 -4 -3 -3 -2 -2 -1 -1 -0 0 0 1 1 1 1 1 1 1
-0 -0 -0 -1 -1 -1 -1 -1 -1 -1 -2 -2 -2 -2 -2 -1 -2 -2 -3 -3 -3 -3 -3 -3 -3 -2 -1 -1 -1 -1 -1 -1 -1 -1 -1 -2 -2 -3 -3 -3 -3 -3 -2 -2 -2 -2 -2 -2 -2 -2 -2 -2 -3 -3 -3 -2 -2 -1 -1 0 1 1 1 1 1 1 1 1 1
-0 -0 -0 -1 -1 -1 -1 -1 -1 -2 -2 -2 -2 -1 -1 -2 -2 -3 -3 -3 -3 -4 -4 -3 -2 -1 -1 -1 -1 -1 -1 -1 -1 -1 -1 -2 -2 -3 -3 -3 -3 -3 -3 -2 -2 -2 -2 -2 -2 -2 -2 -2 -2 -3 -3 -2 -2 -1 -1 -0 0 1 1 1 1 1 0 0 0
-0 -0 -1 -1 -1 -1 -1 -1 -2 -2 -2 -2 -1 -1 -2 -2 -3 -3 -4 -4 -4 -4 -3 -2 -1 -2 -2 -2 -1 -1 -1 -1 -1 -1 -2 -2 -2 -2 -3 -3 -3 -3 -3 -2 -2 -2 -2 -2 -2 -2 -2 -2 -2 -2 -2 -2 -2 -2 -1 -1 -1 -0 -0 -0 -0 0 0 0 0
-0 -0 -1 -1 -1 -1 -1 -2 -2 -1 -1 -1 -1 -2 -2 -3 -3 -4 -4 -4 -3 -2 -1 -0 -1 -2 -1 -1 -1 -2 -2 -1 -1 -2 -2 -2 -2 -3 -3 -3 -3 -3 -3 -2 -2 -2 -2 -2 -2 -2 -2 -2 -2 -2 -2 -2 -2 -2 -2 -2 -1 -1 -1 -1 -0 -0 -0 -0 -0
-0 -1 -1 -1 -1 -1 -1 -2 -2 -1 -1 -2 -2 -2 -3 -3 -3 -3 -3 -2 -2 -1 -1 -2 -2 -2 -1 -1 -2 -2 -2 -2 -2 -2 -2 -2 -2 -3 -3 -4 -3 -3 -2 -2 -2 -2 -2 -2 -2 -1 -1 -1 -1 -1 -1 -1 -1 -1 -1 -2 -2 -2 -1 -1 -1 -0 -0 -0 -0
-0 -1 -1 -1 -1 -1 -1 -2 -2 -1 -2 -2 -2 -2 -3 -3 -2 -2 -2 -2 -2 -3 -3 -3 -3 -3 -3 -3 -3 -2 -2 -2 -2 -2 -2 -2 -3 -3 -3 -3 -3 -2 -2 -2 -2 -2 -2 -1 -1 -1 -1 -1 -1 -1 -1 -1 -1 -1 -1 -1 -1 -2 -2 -1 -1 -1 -0 -0 0
-0 -1 -1 -1 -1 -1 -1 -2 -2 -2 -2 -2 -2 -2 -3 -3 -3 -3 -3 -3 -2 -2 -2 -2 -2 -2 -2 -2 -2 -2 -2 -2 -2 -2 -2 -3 -3 -3 -3 -3 -2 -2 -2 -2 -2 -2 -1 -1 -1 -1 -1 -1 -1 -1 -1 -1 -1 -1 -1 -1 -1 -1 -2 -2 -2 -1 -1 -0 -0
-0 -1 -1 -1 -1 -1 -1 -2 -1 -2 -2 -2 -2 -2 -2 -3 -3 -3 -3 -2 -2 -1 -1 -0 -0 -0 -1 -1 -2 -2 -2 -2 -2 -2 -2 -3 -3 -3 -3 -2 -2 -2 -2 -2 -2 -1 -1 -1 -1 -1 -1 -1 -1 -1 -1 -1 -1 -1 -1 -1 -1 -1 -1 -2 -2 -2 -2 -1 -1
-0 -0 -1 -1 -1 -1 -1 -2 -2 -2 -2 -2 -3 -3 -3 -3 -3 -2 -2 -1 -1 -1 -1 -1 -1 -2 -2 -3 -3 -3 -3 -3 -2 -2 -3 -3 -3 -3 -3 -2 -2 -2 -2 -2 -1 -1 -1 -1 -1 -1 -2 -2 -2 -2 -2 -1 -1 -1 -1 -1 -1 -1 -1 -1 -1 -2 -2 -2 -1
-0 -0 -1 -1 -1 -1 -1 -1 -2 -2 -2 -3 -3 -3 -3 -3 -2 -2 -1 -1 -2 -2 -2 -2 -3 -3 -4 -4 -4 -3 -3 -2 -3 -3 -3 -3 -3 -3 -2 -2 -2 -2 -2 -1 -1 -1 -1 -1 -2 -2 -3 -3 -3 -3 -2 -2 -2 -1 -1 -1 -1 -0 -0 -1 -1 -1 -1 -1 -1
-0 -0 -1 -1 -1 -1 -1 -1 -2 -2 -3 -3 -3 -3 -3 -3 -2 -2 -2 -2 -3 -3 -3 -2 -3 -3 -3 -3 -3 -3 -3 -3 -3 -3 -3 -3 -3 -2 -2 -2 -2 -2 -1 -1 -1 -1 -2 -2 -3 -3 -3 -4 -3 -3 -3 -3 -2 -2 -1 -1 -0 -0 -0 -1 -1 -1 -1 -1 -1
-0 -0 -1 -1 -1 -1 -1 -2 -2 -3 -3 -3 -2 -2 -2 -2 -2 -2 -2 -2 -2 -2 -3 -3 -3 -3 -3 -3 -3 -3 -3 -3 -3 -3 -3 -3 -2 -2 -2 -2 -2 -2 -1 -1 -2 -2 -2 -3 -3 -4 -4 -4 -4 -3 -3 -3 -3 -2 -1 -1 -0 -0 -1 -1 -1 -1 -1 -1 -1
-0 -0 -1 -1 -1 -1 -1 -2 -2 -3 -3 -3 -3 -3 -3 -3 -3 -2 -2 -1 -1 -2 -2 -2 -2 -2 -3 -3 -4 -4 -4 -3 -3 -3 -3 -2 -2 -2 -2 -2 -2 -2 -2 -2 -2 -3 -3 -4 -4 -4 -4 -4 -3 -3 -3 -2 -2 -1 -1 -0 -0 -1 -1 -1 -1 -1 -1 -1 -1
-0 -0 -1 -1 -1 -1 -2 -2 -2 -2 -2 -2 -3 -3 -3 -2 -2 -2 -2 -2 -2 -2 -2 -2 -2 -3 -3 -4 -4 -4 -4 -3 -3 -3 -3 -2 -2 -2 -2 -2 -2 -2 -2 -2 -2 -3 -4 -4 -4 -4 -3 -3 -2 -2 -1 -1 -0 0 0 0 -0 -1 -1 -2 -2 -2 -1 -1 -1
-0 -0 -1 -1 -1 -1 -2 -2 -2 -3 -3 -3 -3 -2 -2 -2 -2 -2 -2 -2 -2 -2 -2 -2 -3 -3 -4 -5 -5 -4 -4 -4 -3 -3 -3 -3 -3 -3 -2 -2 -2 -2 -2 -2 -3 -3 -4 -4 -3 -3 -2 -1 -0 0 1 1 2 2 1 1 -0 -1 -1 -2 -2 -1 -1 -1 -1
Height
5720 5718 5716 5714 5712 5710 5708 5706 5704 5702 5699 5697 5694 5692 5690 5687 5684 5682 5679 5676 5673 5670 5667 5664 5661 5658 5655 5652 5649 5645 5642 5639 5636 5633 5629 5626 5623 5619 5616 5613 5610 5606 5603 5600 5596 5593 5590 5587 5584 5580 5577 5574 5571 5568 5565 5563 5560 5557 5554 5552 5549 5546 5544 5541 5539 5536 5533 5530 5528
5719 5717 5715 5713 5711 5709 5707 5705 5703 5700 5698 5696 5694 5691 5689 5686 5683 5680 5678 5675 5672 5669 5666 5663 5660 5657 5654 5651 5648 5644 5641 5638 5635 5632 5629 5625 5622 5619 5615 5612 5609 5605 5602 5599 5595 5592 5589 5586 5583 5579 5576 5574 5570 5568 5564 5562 5559 5557 5554 5552 5549 5546 5544 5541 5539 5536 5534 5531 5529
5718 5716 5714 5712 5710 5708 5706 5704 5702 5699 5697 5695 5692 5690 5687 5684 5682 5679 5676 5674 5671 5668 5665 5662 5659 5656 5653 5650 5647 5644 5641 5637 5634 5631 5627 5624 5621 5617 5614 5611 5607 5604 5601 5598 5594 5591 5588 5585 5582 5579 5576 5573 5570 5567 5564 5561 5559 5556 5554 5552 5549 5546 5544 5541 5539 5537 5534 5532 5530
5717 5715 5713 5711 5709 5707 5705 5703 5701 5699 5696 5694 5691 5689 5686 5683 5681 5678 5675 5673 5670 5667 5664 5661 5658 5655 5652 5649 5646 5643 5640 5636 5633 5630 5626 5623 5620 5616 5613 5610 5606 5603 5600 5596 5593 5590 5587 5584 5580 5578 5575 5572 5569 5566 5564 5561 5558 5556 5554 5551 5549 5546 5544 5542 5539 5537 5535 5533 5530
5715 5714 5712 5710 5708 5706 5704 5702 5700 5697 5695 5693 5690 5688 5685 5682 5680 5677 5674 5672 5669 5666 5663 5660 5657 5654 5651 5649 5645 5642 5639 5636 5632 5629 5625 5622 5619 5615 5612 5609 5605 5602 5599 5595 5592 5589 5585 5582 5579 5577 5574 5571 5568 5565 5563 5560 5558 5555 5553 5551 5549 5546 5544 5542 5539 5537 5535 5533 5531
5714 5713 5711 5709 5707 5705 5703 5701 5699 5696 5694 5692 5689 5687 5684 5682 5679 5676 5674 5671 5668 5665 5663 5660 5657 5654 5651 5648 5645 5642 5638 5635 5632 5628 5625 5621 5618 5615 5611 5608 5604 5601 5597 5594 5591 5587 5584 5581 5578 5575 5573 5570 5567 5564 5562 5559 5557 5554 5552 5550 5548 5546 5544 5542 5540 5538 5535 5533 5531
5714 5712 5710 5708 5706 5704 5702 5700 5698 5695 5693 5691 5688 5686 5684 5681 5678 5676 5673 5670 5668 5665 5662 5659 5656 5653 5650 5647 5644 5641 5638 5634 5631 5628 5624 5621 5618 5614 5610 5607 5603 5600 5596 5593 5589 5586 5583 5580 5577 5574 5571 5569 5566 5564 5561 5558 5556 5554 5551 5549 5548 5546 5544 5542 5540 5538 5536 5534 5532
5713 5711 5709 5707 5705 5703 5701 5699 5697 5694 5692 5690 5688 5685 5683 5680 5678 5675 5673 5670 5667 5664 5662 5659 5656 5653 5650 5647 5644 5640 5637 5634 5630 5627 5624 5620 5617 5613 5609 5606 5602 5599 5595 5591 5588 5585 5581 5579 5575 5573 5570 5567 5565 5562 5560 5557 5555 5553 5550 5549 5547 5545 5543 5542 5540 5538 5536 5534 5532
5712 5710 5708 5706 5704 5702 5700 5698 5696 5694 5691 5689 5687 5684 5682 5679 5677 5674 5672 5669 5667 5664 5661 5658 5655 5652 5649 5646 5643 5640 5637 5633 5630 5626 5623 5619 5616 5612 5609 5605 5601 5597 5594 5590 5587 5583 5580 5577 5574 5571 5568 5565 5563 5560 5558 5556 5554 5551 5549 5548 5546 5544 5542 5541 5539 5538 5536 5534 5533
5711 5709 5707 5705 5704 5701 5699 5697 5695 5693 5691 5689 5686 5684 5681 5679 5677 5674 5672 5669 5666 5664 5661 5658 5655 5652 5649 5646 5642 5639 5636 5633 5629 5625 5622 5619 5615 5611 5607 5604 5600 5596 5592 5589 5585 5581 5578 5574 5571 5569 5566 5563 5560 5558 5556 5554 5552 5550 5548 5546 5544 5543 5541 5540 5539 5537 5536 5534 5533
5710 5708 5706 5704 5703 5700 5699 5696 5694 5692 5690 5688 5685 5683 5681 5679 5676 5674 5671 5669 5666 5663 5660 5657 5654 5651 5648 5645 5642 5638 5635 5631 5628 5624 5620 5617 5613 5609 5606 5602 5598 5594 5591 5587 5583 5579 5576 5572 5569 5566 5563 5560 5558 5555 5553 5551 5550 5548 5547 5545 5543 5541 5540 5539 5537 5536 5535 5534 5533
5709 5708 5706 5704 5702 5700 5698 5696 5694 5692 5689 5687 5685 5683 5680 5678 5676 5674 5671 5669 5666 5663 5660 5657 5654 5651 5647 5644 5641 5637 5634 5630 5627 5623 5619 5615 5611 5608 5604 5600 5596 5592 5589 5585 5581 5577 5573 5570 5566 5563 5560 5557 5555 5552 5550 5549 5547 5546 5544 5543 5542 5540 5539 5537 5536 5535 5534 5533 5532
5708 5707 5705 5703 5701 5699 5697 5695 5693 5691 5689 5687 5684 5682 5680 5678 5676 5673 5671 5668 5665 5663 5659 5657 5653 5650 5647 5643 5640 5636 5633 5629 5625 5621 5617 5614 5610 5606 5602 5598 5594 5590 5586 5582 5578 5574 5570 5567 5564 5560 5557 5554 5552 5549 5547 5545 5544 5543 5542 5541 5540 5539 5537 5536 5535 5534 5533 5532 5531
5708 5706 5704 5702 5700 5698 5696 5694 5693 5690 5688 5686 5684 5682 5680 5678 5675 5673 5670 5668 5665 5662 5659 5656 5653 5649 5646 5642 5639 5635 5631 5628 5624 5620 5616 5612 5608 5604 5600 5596 5592 5588 5584 5580 5576 5572 5568 5564 5561 5558 5554 5552 5549 5546 5544 5543 5541 5540 5539 5539 5538 5537 5536 5534 5533 5532 5531 5531 5530
5707 5705 5703 5701 5699 5698 5696 5694 5692 5690 5688 5686 5684 5682 5680 5678 5675 5673 5670 5668 5665 5662 5659 5655 5652 5649 5645 5641 5638 5634 5630 5626 5622 5619 5614 5610 5606 5602 5598 5594 5590 5586 5581 5577 5573 5569 5566 5562 5559 5555 5552 5549 5546 5544 5542 5540 5538 5537 5536 5536 5535 5535 5534 5533 5532 5531 5530 5529 5529
5706 5704 5703 5701 5699 5697 5695 5694 5692 5690 5688 5686 5684 5682 5680 5678 5675 5673 5670 5667 5664 5661 5658 5655 5651 5648 5644 5641 5637 5633 5629 5625 5621 5617 5614 5609 5605 5601 5596 5592 5588 5584 5579 5575 5571 5568 5564 5560 5557 5553 5550 5547 5544 5542 5539 5537 5536 5534 5534 5533 5533 5532 5532 5531 5530 5529 5529 5528 5527
5705 5704 5702 5700 5699 5697 5695 5693 5691 5689 5688 5686 5684 5682 5680 5678 5675 5673 5670 5667 5664 5661 5658 5654 5651 5647 5644 5640 5636 5632 5628 5624 5620 5616 5612 5608 5604 5599 5595 5590 5586 5582 5578 5574 5570 5567 5563 5559 5555 5552 5549 5545 5543 5540 5538 5535 5534 5533 5531 5531 5530 5529 5529 5529 5529 5528 5527 5527 5526
5705 5703 5702 5700 5698 5696 5695 5693 5691 5689 5688 5686 5684 5682 5680 5678 5675 5672 5669 5666 5664 5660 5657 5654 5650 5646 5643 5639 5635 5631 5627 5624 5619 5615 5611 5607 5602 5598 5593 5589 5585 5581 5577 5574 5570 5566 5562 5558 5554 5551 5547 5544 5541 5539 5536 5534 5532 5531 5529 5529 5528 5527 5527 5527 5527 5526 5526 5525 5525
5704 5703 5701 5699 5698 5696 5694 5693 5691 5689 5688 5686 5684 5682 5680 5677 5674 5672 5669 5666 5663 5660 5657 5653 5649 5646 5642 5638 5634 5630 5626 5622 5618 5614 5610 5605 5601 5596 5592 5588 5584 5580 5577 5573 5569 5566 5562 5558 5554 5550 5547 5543 5540 5538 5535 5533 5531 5529 5528 5527 5526 5526 5525 5525 5525 5524 5524 5524 5524
5704 5702 5701 5699 5698 5696 5694 5693 5691 5690 5688 5686 5684 5682 5679 5677 5674 5671 5669 5666 5663 5659 5656 5652 5649 5645 5641 5637 5633 5629 5625 5621 5617 5613 5608 5604 5599 5595 5591 5587 5584 5580 5576 5573 5569 5565 5562 5558 5554 5550 5546 5543 5540 5537 5535 5533 5531 5529 5527 5526 5525 5524 5524 5523 5523 5523 5523 5523 5523
5703 5702 5700 5699 5697 5696 5694 5693 5691 5690 5688 5686 5684 5682 5679 5677 5674 5671 5669 5665 5662 5659 5655 5652 5648 5644 5640 5637 5633 5629 5625 5620 5616 5612 5607 5603 5599 5594 5591 5587 5583 5580 5576 5573 5569 5566 5562 5558 5554 5550 5547 5543 5540 5537 5535 5533 5530 5529 5527 5526 5524 5524 5523 5522 5522 5522 5522 5522 5521
5703 5701 5700 5699 5697 5696 5694 5693 5692 5690 5688 5686 5684 5681 5679 5676 5674 5671 5668 5665 5662 5658 5655 5651 5647 5644 5640 5636 5632 5628 5624 5619 5615 5611 5606 5602 5598 5594 5590 5587 5583 5580 5576 5573 5570 5566 5562 5559 5555 5551 5547 5544 5541 5538 5535 5533 5531 5529 5527 5526 5524 5523 5522 5521 5521 5520 5520 5520 5520
5703 5701 5700 5699 5697 5696 5695 5693 5692 5690 5688 5686 5684 5681 5679 5676 5674 5671 5668 5664 5661 5658 5654 5650 5647 5643 5639 5635 5631 5627 5623 5619 5614 5610 5606 5601 5598 5594 5590 5587 5584 5580 5577 5574 5570 5567 5563 5559 5556 5552 5549 5545 5542 5539 5536 5534 5532 5530 5528 5526 5525 5523 5522 5521 5520 5520 5519 5519 5519
5702 5701 5700 5699 5697 5696 5695 5693 5692 5690 5688 5686 5684 5681 5679 5676 5673 5670 5667 5664 5661 5657 5654 5650 5646 5642 5639 5635 5631 5627 5623 5618 5614 5609 5605 5601 5598 5594 5591 5587 5584 5581 5578 5575 5571 5568 5564 5561 5557 5553 5550 5546 5543 5540 5538 5535 5533 5531 5529 5527 5525 5524 5523 5521 5520 5520 5519 5519 5519
5702 5701 5700 5699 5698 5696 5695 5694 5692 5690 5688 5686 5683 5681 5679 5676 5673 5670 5667 5664 5660 5657 5653 5649 5645 5642 5638 5634 5630 5626 5622 5618 5614 5609 5605 5601 5598 5594 5591 5588 5585 5582 5579 5576 5572 5569 5565 5562 5558 5555 5551 5548 5545 5542 5539 5537 5534 5532 5530 5528 5527 5525 5524 5522 5521 5520 5519 5519 5518
5702 5701 5700 5699 5698 5697 5695 5694 5692 5690 5688 5685 5683 5681 5678 5676 5673 5670 5666 5663 5659 5656 5652 5649 5645 5642 5638 5634 5630 5626 5622 5618 5613 5609 5605 5602 5598 5595 5592 5589 5586 5583 5580 5577 5573 5570 5566 5563 5559 5556 5553 5549 5546 5544 5541 5538 5536 5534 5532 5530 5528 5526 5525 5523 5522 5521 5519 5519 5518
5702 5701 5700 5699 5698 5697 5695 5694 5692 5690 5688 5685 5683 5681 5678 5675 5672 5669 5666 5663 5659 5655 5652 5649 5645 5642 5638 5634 5630 5626 5622 5617 5613 5609 5605 5602 5599 5596 5593 5590 5587 5584 5580 5577 5574 5571 5567 5564 5561 5557 5554 5551 5548 5545 5543 5540 5538 5535 5533 5531 5529 5528 5526 5524 5523 5522 5520 5519 5518
5703 5701 5700 5699 5698 5697 5695 5694 5692 5690 5688 5685 5683 5681 5678 5675 5672 5669 5666 5662 5659 5655 5652 5649 5645 5642 5638 5634 5630 5626 5622 5617 5613 5609 5606 5602 5599 5597 5594 5591 5588 5584 5581 5578 5575 5572 5568 5565 5562 5559 5556 5553 5549 5547 5544 5542 5539 5537 5535 5533 5531 5529 5527 5525 5524 5522 5521 5520 5519
5703 5702 5700 5699 5698 5697 5695 5694 5692 5690 5688 5685 5683 5680 5678 5675 5672 5669 5665 5662 5659 5655 5652 5649 5645 5641 5638 5634 5630 5626 5621 5617 5613 5609 5606 5603 5600 5597 5594 5591 5588 5585 5582 5579 5576 5573 5569 5566 5563 5560 5557 5554 5551 5548 5546 5543 5541 5539 5536 5534 5532 5530 5529 5527 5525 5523 5522 5521 5519
5703 5702 5701 5700 5699 5697 5695 5694 5692 5690 5688 5685 5683 5680 5678 5674 5672 5669 5665 5662 5659 5656 5652 5649 5645 5641 5638 5634 5629 5625 5621 5617 5613 5609 5606 5603 5600 5598 5595 5592 5589 5586 5583 5580 5577 5574 5570 5567 5564 5561 5559 5555 5553 5550 5547 5545 5543 5540 5538 5536 5534 5532 5530 5528 5526 5524 5523 5521 5520
5703 5702 5701 5700 5699 5697 5695 5694 5692 5690 5688 5685 5683 5680 5677 5674 5672 5669 5665 5662 5659 5656 5652 5649 5645 5642 5638 5634 5629 5625 5621 5617 5613 5610 5607 5604 5601 5599 5595 5593 5590 5587 5584 5581 5578 5574 5571 5569 5565 5563 5560 5557 5554 5551 5549 5546 5544 5542 5539 5537 5535 5533 5531 5529 5527 5526 5524 5523 5521
5703 5702 5701 5700 5699 5697 5696 5694 5692 5690 5688 5685 5683 5680 5678 5674 5672 5669 5665 5662 5659 5656 5652 5649 5645 5641 5638 5634 5629 5625 5621 5617 5613 5610 5607 5604 5602 5599 5596 5594 5591 5588 5585 5582 5579 5576 5573 5570 5567 5564 5561 5559 5556 5553 5550 5548 5545 5543 5541 5539 5537 5534 5533 5530 5529 5527 5525 5524 5523
5703 5702 5701 5700 5699 5697 5696 5694 5692 5690 5688 5685 5683 5680 5678 5675 5672 5669 5665 5662 5659 5656 5652 5649 5645 5642 5638 5634 5629 5625 5621 5617 5614 5611 5608 5605 5602 5600 5597 5594 5592 5589 5586 5583 5580 5577 5574 5571 5568 5565 5563 5560 5557 5554 5552 5549 5547 5544 5542 5540 5538 5536 5534 5532 5530 5528 5527 5525 5524
5703 5702 5701 5700 5699 5697 5696 5694 5692 5690 5688 5685 5683 5680 5678 5675 5672 5669 5666 5663 5659 5656 5653 5649 5646 5642 5638 5634 5630 5625 5621 5618 5614 5611 5608 5606 5603 5601 5598 5595 5593 5589 5587 5584 5581 5578 5575 5572 5569 5567 5564 5561 5558 5555 5553 5550 5548 5546 5544 5541 5539 5537 5535 5533 5531 5529 5528 5526 5524
5703 5702 5701 5700 5699 5697 5696 5694 5692 5690 5688 5685 5683 5680 5678 5675 5672 5669 5666 5663 5660 5656 5653 5649 5646 5642 5638 5634 5630 5626 5622 5618 5614 5612 5609 5606 5604 5602 5599 5596 5593 5590 5588 5585 5582 5579 5576 5573 5570 5568 5565 5562 5559 5557 5554 5552 5549 5547 5545 5543 5540 5538 5536 5534 5532 5530 5529 5527 5525
5703 5703 5701 5700 5699 5698 5696 5694 5692 5690 5688 5686 5683 5681 5678 5675 5672 5669 5666 5663 5660 5657 5653 5649 5646 5642 5638 5634 5630 5626 5622 5619 5615 5612 5610 5607 5605 5603 5600 5597 5594 5591 5589 5586 5583 5580 5577 5574 5571 5569 5566 5563 5560 5558 5555 5553 5550 5548 5546 5544 5542 5539 5537 5535 5533 5531 5530 5528 5526
5704 5703 5702 5700 5699 5698 5696 5694 5693 5690 5688 5686 5684 5681 5678 5676 5673 5670 5667 5664 5660 5657 5654 5650 5646 5642 5639 5634 5630 5626 5623 5619 5616 5613 5610 5608 5606 5604 5601 5598 5595 5593 5590 5587 5584 5581 5578 5575 5572 5569 5567 5564 5561 5559 5556 5554 5552 5549 5547 5545 5543 5541 5539 5536 5534 5532 5531 5529 5527
5704 5703 5702 5700 5699 5698 5696 5694 5693 5691 5689 5686 5684 5681 5679 5676 5673 5670 5667 5664 5661 5657 5654 5650 5647 5643 5639 5635 5631 5627 5623 5620 5617 5614 5612 5609 5607 5605 5602 5599 5596 5594 5591 5588 5585 5582 5579 5576 5573 5570 5568 5565 5562 5560 5558 5555 5553 5551 5548 5546 5544 5542 5539 5537 5535 5533 5531 5530 5528
5704 5703 5702 5701 5699 5698 5696 5695 5693 5691 5689 5686 5684 5682 5679 5676 5674 5671 5668 5664 5661 5658 5654 5651 5647 5644 5639 5635 5631 5628 5624 5621 5618 5615 5613 5611 5608 5606 5603 5600 5598 5595 5592 5589 5586 5583 5580 5577 5574 5571 5569 5566 5564 5561 5559 5556 5554 5552 5549 5547 5545 5543 5540 5538 5536 5534 5532 5530 5529
5704 5703 5702 5701 5699 5698 5697 5695 5693 5691 5689 5687 5684 5682 5679 5677 5674 5671 5668 5665 5662 5658 5655 5651 5648 5644 5640 5636 5632 5628 5625 5622 5619 5616 5614 5612 5609 5607 5604 5601 5599 5596 5593 5590 5587 5584 5581 5578 5575 5573 5570 5568 5565 5562 5560 5558 5555 5553 5551 5549 5546 5544 5541 5539 5537 5535 5533 5531 5529
5704 5703 5702 5701 5700 5699 5697 5695 5693 5691 5689 5687 5685 5683 5680 5677 5674 5672 5669 5665 5662 5659 5655 5652 5648 5644 5641 5637 5633 5629 5626 5623 5620 5618 5615 5613 5610 5608 5605 5602 5600 5597 5594 5591 5588 5585 5582 5579 5577 5574 5572 5569 5566 5564 5562 5559 5557 5555 5553 5550 5548 5545 5543 5540 5538 5536 5534 5532 5530